ARIANE 5 R/B (43634 NORAD) Tracking and Keplerian Element Data

This shows tracking and keplerian element data for the satellite.

Feedback or suggestion? Click here.




ElementValue
Catalog43634
NameARIANE 5 R/B
Epoch Orbit63
Epoch Day296.65386718
Epoch Year2018
RAAN162.3303
Inclination5.8169
Eccentricity0.7267297
Argument of Perigee199.0262
Mean Anonmoly104.9834
Mean Motion2.28537668
Decay Rate6.31E-06
L11 43634U 18074C 18296.65386718 .00000631 00000-0 33390-3 0 9991
L22 43634 5.8169 162.3303 7267297 199.0262 104.9834 2.28537668 633

Live tracking and technical data element details for ARIANE 5 R/B (NORAD 43634). ARIANE 5 R/B can be tracked NOW for your location showing map with azimuth and elevation plus other details from your city location.

Track the satellite on the map from your city or location and see movement details for azimuth, elevation, latitude, longitude, range, height, and movement on the map or in text.







IsCatalogInMostPopularTable: catalog: 43634, numindb: 19
Update: records affected: 1



GetName: 43634 ARIANE 5 R/B

Hit Count: updated at: Thu, 15 Nov 2018 04:37:28 GMT